KC1OEK-13 Weather Reports


time (UTC)temp
C
wind
direction
speed
KPH
gust
KPH
rain 1hr
cm
rain 24hr
cm
rain mn
cm
humidity
%
barometer
mb
20260506183415 15 10 3.2 8.0 0.00 0.15 0.15 96 1009.4
20260506182912 15 293 1.6 3.2 0.00 0.15 0.15 96 1009.7
20260506182409 15 341 3.2 8.0 0.18 0.15 0.15 96 1009.5
20260506181907 15 344 4.8 11.3 0.18 0.15 0.15 96 1009.7
20260506181404 15 242 4.8 12.9 0.00 0.13 0.13 95 1009.9
20260506180901 15 258 8.0 9.7 0.13 0.13 0.13 95 1009.7
20260506180357 15 17 0.0 4.8 0.13 0.13 0.13 95 1009.7
20260506175854 15 340 0.0 3.2 0.00 0.10 0.10 95 1009.5
20260506175350 15 338 3.2 4.8 0.00 0.10 0.10 94 1009.6
20260506174848 15 155 4.8 8.0 0.00 0.10 0.10 93 1009.5
20260506174345 15 36 0.0 9.7 0.00 0.10 0.10 93 1009.7
20260506173843 15 106 1.6 4.8 0.18 0.10 0.10 93 1009.6
20260506173339 15 175 4.8 9.7 0.00 0.08 0.08 92 1009.7
20260506172836 15 190 6.4 9.7 0.13 0.08 0.08 91 1009.7
20260506172333 16 5 3.2 8.0 0.30 0.08 0.08 91 1009.9
20260506171830 16 74 3.2 11.3 0.18 0.05 0.05 90 1010.0
20260506171327 16 186 3.2 9.7 0.13 0.03 0.03 89 1010.2
20260506170825 16 44 1.6 4.8 0.13 0.03 0.03 88 1010.4
20260506170321 16 297 3.2 8.0 0.00 0.00 0.00 87 1010.4
20260506165820 17 285 1.6 3.2 0.00 0.00 0.00 86 1010.5
20260506165317 17 241 4.8 9.7 0.00 0.00 0.00 84 1010.7
20260506164814 17 220 3.2 4.8 0.00 0.00 0.00 82 1010.5
20260506164310 17 194 11.3 14.5 0.00 0.00 0.00 79 1010.7
20260506163808 17 262 4.8 9.7 0.00 0.00 0.00 79 1010.7
20260506163302 18 232 8.0 14.5 0.00 0.00 0.00 77 1010.5
20260506162758 18 208 8.0 12.9 0.00 0.00 0.00 77 1010.7
20260506162256 18 132 8.0 11.3 0.00 0.00 0.00 77 1010.7
20260506161753 18 257 6.4 11.3 0.00 0.00 0.00 76 1010.7
20260506161250 18 227 6.4 11.3 0.00 0.00 0.00 76 1010.7
20260506160748 18 232 6.4 11.3 0.00 0.00 0.00 77 1010.6
20260506160244 18 199 4.8 11.3 0.00 0.00 0.00 76 1010.6
20260506155743 18 356 3.2 8.0 0.00 0.00 0.00 75 1010.6
20260506155239 18 21 3.2 9.7 0.00 0.00 0.00 74 1010.8
20260506153347 19 208 6.4 8.0 0.00 0.00 0.00 74 1011.1
20260506152844 18 278 4.8 9.7 0.00 0.00 0.00 74 1011.2
20260506152341 18 196 11.3 12.9 0.00 0.00 0.00 74 1011.1
20260506151839 18 176 14.5 20.9 0.00 0.00 0.00 74 1010.9
20260506151335 18 176 14.5 20.9 0.00 0.00 0.00 74 1010.9
20260506150833 18 121 6.4 11.3 0.00 0.00 0.00 74 1010.9
20260506150330 19 244 4.8 4.8 0.00 0.00 0.00 74 1010.9
20260506145826 18 251 11.3 24.1 0.00 0.00 0.00 74 1011.1
20260506145323 18 203 9.7 12.9 0.00 0.00 0.00 73 1010.9
20260506144820 19 240 4.8 11.3 0.00 0.00 0.00 75 1011.0
20260506144317 18 293 4.8 9.7 0.00 0.00 0.00 74 1011.1
20260506143816 18 277 3.2 14.5 0.00 0.00 0.00 75 1011.0
20260506143312 18 237 6.4 12.9 0.00 0.00 0.00 74 1011.2
20260506142810 18 230 8.0 11.3 0.00 0.00 0.00 74 1011.2
20260506142308 18 188 3.2 12.9 0.00 0.00 0.00 75 1011.3
20260506141806 18 311 4.8 12.9 0.00 0.00 0.00 75 1011.4
20260506141304 18 225 11.3 12.9 0.00 0.00 0.00 75 1011.3
20260506140801 18 213 9.7 12.9 0.00 0.00 0.00 74 1011.2
20260506140258 18 304 4.8 12.9 0.00 0.00 0.00 75 1011.4
20260506135755 18 178 4.8 8.0 0.00 0.00 0.00 75 1011.2
20260506135251 18 288 3.2 8.0 0.00 0.00 0.00 77 1011.1
20260506134748 18 207 6.4 17.7 0.00 0.00 0.00 77 1011.2
20260506134244 18 298 4.8 11.3 0.00 0.00 0.00 77 1011.1
20260506133742 18 208 3.2 8.0 0.00 0.00 0.00 77 1011.4
20260506133238 17 280 6.4 16.1 0.00 0.00 0.00 78 1011.1
20260506132735 17 207 8.0 12.9 0.00 0.00 0.00 78 1011.1
20260506132232 17 286 6.4 12.9 0.00 0.00 0.00 78 1011.2
20260506131730 18 251 6.4 9.7 0.00 0.00 0.00 78 1010.9
20260506131226 18 251 4.8 8.0 0.00 0.00 0.00 78 1011.1
20260506130723 17 220 6.4 8.0 0.00 0.00 0.00 79 1011.3
20260506130220 17 201 6.4 9.7 0.00 0.00 0.00 79 1011.3
20260506125718 17 194 3.2 4.8 0.00 0.00 0.00 81 1011.3
20260506125215 17 326 1.6 4.8 0.00 0.00 0.00 82 1011.3
20260506124713 17 221 1.6 4.8 0.00 0.00 0.00 82 1011.4
20260506124211 17 315 4.8 8.0 0.00 0.00 0.00 82 1011.3
20260506123708 16 7 1.6 11.3 0.00 0.00 0.00 82 1011.4
20260506123207 16 341 4.8 11.3 0.00 0.00 0.00 82 1011.5
20260506122703 16 318 3.2 4.8 0.00 0.00 0.00 83 1011.6
20260506122201 16 260 6.4 9.7 0.00 0.00 0.00 84 1011.9
20260506121659 16 256 6.4 9.7 0.00 0.00 0.00 83 1011.9
20260506121155 16 222 6.4 8.0 0.00 0.00 0.00 83 1011.7
20260506120653 16 233 4.8 4.8 0.00 0.00 0.00 84 1011.8
20260506120150 16 13 1.6 3.2 0.00 0.00 0.00 85 1011.7
20260506115648 15 111 4.8 8.0 0.00 0.00 0.00 86 1011.8
20260506115146 15 331 1.6 1.6 0.00 0.00 0.00 87 1011.6
20260506114643 15 69 4.8 4.8 0.00 0.00 0.00 87 1011.5
20260506114141 15 219 3.2 3.2 0.00 0.00 0.00 88 1011.7
20260506113640 15 89 3.2 3.2 0.00 0.00 0.00 88 1011.6
20260506113136 15 12 0.0 4.8 0.00 0.00 0.00 88 1011.6
20260506112632 15 0 0.0 3.2 0.00 0.00 0.00 89 1011.7
20260506112130 15 16 0.0 3.2 0.00 0.00 0.00 89 1011.9
20260506111628 14 25 0.0 3.2 0.00 0.00 0.00 90 1011.7
20260506111125 14 13 0.0 1.6 0.00 0.00 0.00 91 1011.8
20260506110622 14 27 0.0 1.6 0.00 0.00 0.00 91 1011.8
20260506110120 13 20 0.0 4.8 0.00 0.00 0.00 92 1011.8
20260506105616 13 356 1.6 3.2 0.00 0.00 0.00 92 1011.8
20260506105113 13 2 0.0 1.6 0.00 0.00 0.00 93 1012.0
20260506104611 13 27 0.0 0.0 0.00 0.00 0.00 94 1011.7
20260506104108 13 30 0.0 1.6 0.00 0.00 0.00 94 1012.0
20260506103606 13 4 0.0 0.0 0.00 0.00 0.00 94 1011.6
20260506103102 12 27 0.0 1.6 0.00 0.00 0.00 94 1011.5
20260506102601 12 24 0.0 1.6 0.00 0.00 0.00 94 1011.7
20260506102058 12 1 0.0 1.6 0.00 0.00 0.00 95 1011.8
20260506101554 12 6 0.0 1.6 0.00 0.00 0.00 95 1011.6
20260506101051 12 20 0.0 0.0 0.00 0.00 0.00 94 1011.6
20260506100550 12 16 0.0 1.6 0.00 0.00 0.00 94 1011.7
20260506100047 12 27 1.6 1.6 0.00 0.00 0.00 94 1011.5
20260506095546 12 22 0.0 1.6 0.00 0.00 0.00 94 1011.6
20260506095042 12 11 1.6 1.6 0.00 0.00 0.00 94 1011.7
20260506094540 12 21 0.0 0.0 0.00 0.00 0.00 94 1011.6
20260506094038 12 21 0.0 0.0 0.00 0.00 0.00 94 1011.7
20260506093536 12 29 0.0 0.0 0.00 0.00 0.00 93 1011.7
20260506093033 12 18 0.0 1.6 0.00 0.00 0.00 93 1011.6
20260506092530 12 30 0.0 1.6 0.00 0.00 0.00 93 1011.7
20260506092027 12 32 0.0 1.6 0.00 0.00 0.00 93 1011.7
20260506091526 12 19 0.0 1.6 0.00 0.00 0.00 93 1011.5
20260506091022 12 18 0.0 0.0 0.00 0.00 0.00 93 1011.7
20260506090520 12 39 0.0 1.6 0.00 0.00 0.00 93 1011.6
20260506090016 12 24 0.0 1.6 0.00 0.00 0.00 92 1011.6
20260506085513 12 25 0.0 0.0 0.00 0.00 0.00 92 1011.7
20260506085009 12 23 0.0 0.0 0.00 0.00 0.00 91 1011.9
20260506084506 13 33 0.0 1.6 0.00 0.00 0.00 91 1011.9
20260506084002 13 30 0.0 1.6 0.00 0.00 0.00 91 1011.7
20260506083500 13 7 0.0 3.2 0.00 0.00 0.00 90 1011.7
20260506082957 13 92 1.6 3.2 0.00 0.00 0.00 90 1011.9
20260506082454 13 21 0.0 0.0 0.00 0.00 0.00 90 1011.9
20260506081949 13 12 0.0 0.0 0.00 0.00 0.00 89 1011.9
20260506081448 13 9 0.0 1.6 0.00 0.00 0.00 89 1011.9
20260506080945 13 9 1.6 1.6 0.00 0.00 0.00 89 1011.9
20260506080442 13 67 0.0 3.2 0.00 0.00 0.00 89 1011.7
20260506073426 13 36 1.6 1.6 0.00 0.00 0.00 87 1011.9
20260506072923 13 13 0.0 1.6 0.00 0.00 0.00 87 1011.9
20260506072420 13 170 3.2 4.8 0.00 0.00 0.00 87 1012.0
20260506071918 14 8 0.0 1.6 0.00 0.00 0.00 86 1012.0
20260506071416 14 228 1.6 9.7 0.00 0.00 0.00 86 1012.0
20260506070912 14 12 0.0 1.6 0.00 0.00 0.00 86 1011.9
20260506070409 14 326 1.6 4.8 0.00 0.00 0.00 85 1011.9
20260506062347 14 285 0.0 3.2 0.00 0.00 0.00 83 1011.5
20260506061843 14 18 0.0 0.0 0.00 0.00 0.00 82 1011.8
20260506061339 15 18 0.0 0.0 0.00 0.00 0.00 82 1011.9
20260506060838 15 33 0.0 1.6 0.00 0.00 0.00 81 1011.8
20260506060335 15 9 0.0 0.0 0.00 0.00 0.00 80 1011.6
20260506051307 16 325 1.6 8.0 0.00 0.00 0.00 76 1012.3
20260506050805 15 345 4.8 4.8 0.00 0.00 0.00 76 1012.4
20260506050302 16 9 0.0 1.6 0.00 0.00 0.00 76 1012.2
20260506044752 16 277 3.2 14.5 0.00 0.00 0.00 74 1012.4
20260506044250 16 301 1.6 4.8 0.00 0.00 0.00 74 1012.3
20260506043747 16 302 1.6 3.2 0.00 0.00 0.00 74 1012.2
20260506043244 16 301 1.6 9.7 0.00 0.00 0.00 73 1012.2
20260506042743 16 184 3.2 8.0 0.00 0.00 0.00 72 1012.2
20260506042242 17 252 6.4 8.0 0.00 0.00 0.00 72 1012.3
20260506041739 17 242 4.8 12.9 0.00 0.00 0.00 71 1012.3
20260506041236 17 170 3.2 8.0 0.00 0.00 0.00 71 1012.3
20260506040734 17 265 4.8 12.9 0.00 0.00 0.00 71 1012.2
20260506040231 17 233 9.7 14.5 0.00 0.00 0.00 70 1012.2
20260506035727 17 26 1.6 12.9 0.00 0.00 0.00 70 1012.3
20260506035224 17 268 3.2 12.9 0.00 0.00 0.00 70 1012.3
20260506034721 17 10 0.0 8.0 0.00 0.00 0.00 70 1012.3
20260506034218 17 220 6.4 8.0 0.00 0.00 0.00 71 1012.2
20260506033716 16 246 3.2 8.0 0.00 0.00 0.00 71 1012.2
20260506033212 16 342 1.6 3.2 0.00 0.00 0.00 72 1012.2
20260506032709 16 345 1.6 3.2 0.00 0.00 0.00 73 1012.1
20260506032207 16 16 1.6 8.0 0.00 0.00 0.00 72 1012.3
20260506031703 16 52 1.6 3.2 0.00 0.00 0.00 73 1012.2
20260506031200 16 10 0.0 0.0 0.00 0.00 0.00 73 1012.1
20260506030659 16 330 1.6 3.2 0.00 0.00 0.00 73 1012.3
20260506030156 16 29 0.0 3.2 0.00 0.00 0.00 72 1012.3
20260506025652 16 108 1.6 3.2 0.00 0.00 0.00 72 1012.4
20260506025149 16 12 0.0 4.8 0.00 0.00 0.00 71 1012.1
20260506024646 16 208 4.8 9.7 0.00 0.00 0.00 71 1012.3
20260506024142 16 27 0.0 1.6 0.00 0.00 0.00 71 1012.2
20260506023638 16 178 1.6 4.8 0.00 0.00 0.00 70 1012.1
20260506023135 17 28 3.2 8.0 0.00 0.00 0.00 69 1012.0
20260506022633 17 16 0.0 9.7 0.00 0.00 0.00 68 1012.1
20260506022130 17 193 4.8 8.0 0.00 0.00 0.00 69 1012.1
20260506021628 17 0 3.2 4.8 0.00 0.00 0.00 69 1012.1
20260506021125 17 342 1.6 1.6 0.00 0.00 0.00 69 1012.1
20260506020622 17 358 0.0 1.6 0.00 0.00 0.00 70 1012.3
20260506020120 17 8 0.0 0.0 0.00 0.00 0.00 70 1011.9
20260506015617 17 12 0.0 1.6 0.00 0.00 0.00 69 1011.9
20260506015114 17 25 0.0 1.6 0.00 0.00 0.00 69 1012.0
20260506014612 17 17 0.0 1.6 0.00 0.00 0.00 68 1011.7
20260506014107 17 42 1.6 1.6 0.00 0.00 0.00 68 1011.8
20260506013605 17 1 0.0 1.6 0.00 0.00 0.00 67 1011.8
20260506013102 18 295 1.6 3.2 0.00 0.00 0.00 67 1011.5
20260506012558 18 277 1.6 8.0 0.00 0.00 0.00 66 1011.7
20260506012054 17 219 8.0 11.3 0.00 0.00 0.00 66 1011.6
20260506011552 17 283 4.8 8.0 0.00 0.00 0.00 67 1011.5
20260506011043 17 13 0.0 1.6 0.00 0.00 0.00 66 1011.5
20260506010542 17 10 0.0 4.8 0.00 0.00 0.00 66 1011.5
20260506010038 18 356 1.6 1.6 0.00 0.00 0.00 66 1011.4
20260506005536 18 353 1.6 4.8 0.00 0.00 0.00 65 1011.3
20260506005031 18 0 0.0 1.6 0.00 0.00 0.00 65 1011.2
20260506004529 18 30 0.0 1.6 0.00 0.00 0.00 64 1011.2
20260506004026 18 319 1.6 9.7 0.00 0.00 0.00 63 1011.0
20260506003522 18 203 6.4 11.3 0.00 0.00 0.00 63 1011.0
20260506003018 18 304 1.6 3.2 0.00 0.00 0.00 64 1011.0
20260506002514 18 317 1.6 4.8 0.00 0.00 0.00 63 1010.8
20260506002010 18 239 3.2 4.8 0.00 0.00 0.00 63 1010.8
20260506001507 19 345 3.2 4.8 0.00 0.00 0.00 62 1010.6
20260506001004 19 287 3.2 4.8 0.00 0.00 0.00 61 1010.7
20260506000501 20 268 4.8 8.0 0.00 0.00 0.00 61 1010.4
20260505235958 20 58 3.2 9.7 0.00 0.00 0.00 61 1010.5
20260505235457 20 210 8.0 11.3 0.00 0.00 0.00 60 1010.5
20260505234953 20 314 4.8 8.0 0.00 0.00 0.00 60 1010.5
20260505234450 20 347 3.2 8.0 0.00 0.00 0.00 60 1010.3
20260505233947 20 14 3.2 11.3 0.00 0.00 0.00 60 1010.3
20260505233445 20 286 3.2 9.7 0.00 0.00 0.00 60 1010.3
20260505232942 20 191 6.4 9.7 0.00 0.00 0.00 59 1010.1
20260505232440 20 182 11.3 14.5 0.00 0.00 0.00 58 1010.1
20260505231937 20 238 4.8 8.0 0.00 0.00 0.00 59 1010.0
20260505231434 21 211 4.8 9.7 0.00 0.00 0.00 58 1010.0
20260505230932 21 213 6.4 14.5 0.00 0.00 0.00 57 1009.6
20260505230430 21 199 16.1 25.7 0.00 0.00 0.00 56 1010.0
20260505225925 21 103 3.2 16.1 0.00 0.00 0.00 57 1010.0
20260505225423 21 199 8.0 11.3 0.00 0.00 0.00 57 1009.7
20260505224918 21 318 6.4 9.7 0.00 0.00 0.00 57 1009.8
20260505224416 21 213 6.4 9.7 0.00 0.00 0.00 56 1009.7
20260505223913 21 227 9.7 22.5 0.00 0.00 0.00 55 1009.6
20260505223410 22 221 6.4 11.3 0.00 0.00 0.00 55 1009.4
20260505222906 22 287 4.8 14.5 0.00 0.00 0.00 55 1009.5
20260505222402 22 211 17.7 29.0 0.00 0.00 0.00 55 1009.5
20260505221859 22 206 8.0 16.1 0.00 0.00 0.00 56 1009.3
20260505221356 22 224 8.0 14.5 0.00 0.00 0.00 55 1009.7
20260505220853 23 162 4.8 9.7 0.00 0.00 0.00 54 1009.7
20260505220350 23 17 4.8 16.1 0.00 0.00 0.00 52 1009.6
20260505215847 23 254 8.0 17.7 0.00 0.00 0.00 52 1009.7
20260505215345 23 223 14.5 20.9 0.00 0.00 0.00 52 1009.7
20260505214843 23 152 9.7 29.0 0.00 0.00 0.00 51 1009.5
20260505214340 23 200 6.4 16.1 0.00 0.00 0.00 51 1009.6
20260505213837 23 217 8.0 14.5 0.00 0.00 0.00 51 1009.4
20260505213335 24 228 6.4 12.9 0.00 0.00 0.00 50 1009.5
20260505212831 24 13 3.2 14.5 0.00 0.00 0.00 50 1009.1
20260505212328 23 176 6.4 14.5 0.00 0.00 0.00 51 1009.4
20260505211824 24 263 6.4 17.7 0.00 0.00 0.00 51 1009.1
20260505211322 24 222 9.7 16.1 0.00 0.00 0.00 49 1009.4
20260505210818 25 358 0.0 16.1 0.00 0.00 0.00 50 1009.1
20260505210315 24 101 3.2 9.7 0.00 0.00 0.00 50 1009.4
20260505205812 24 183 6.4 17.7 0.00 0.00 0.00 51 1009.3
20260505205311 23 228 6.4 11.3 0.00 0.00 0.00 50 1009.4
20260505204807 24 26 6.4 16.1 0.00 0.00 0.00 51 1009.4
20260505204305 25 191 11.3 12.9 0.00 0.00 0.00 50 1009.5
20260505203802 24 251 8.0 14.5 0.00 0.00 0.00 50 1009.4
20260505203259 24 177 8.0 17.7 0.00 0.00 0.00 49 1009.3
20260505202755 24 192 20.9 25.7 0.00 0.00 0.00 49 1009.5
20260505202251 25 194 9.7 20.9 0.00 0.00 0.00 49 1009.4
20260505201747 25 266 12.9 16.1 0.00 0.00 0.00 48 1009.3
20260505201245 25 263 8.0 24.1 0.00 0.00 0.00 50 1009.5
20260505200743 24 194 12.9 25.7 0.00 0.00 0.00 50 1009.5
20260505200240 25 203 12.9 24.1 0.00 0.00 0.00 47 1009.6
20260505195735 25 139 14.5 24.1 0.00 0.00 0.00 48 1009.6
20260505195233 25 303 1.6 29.0 0.00 0.00 0.00 48 1009.5
20260505194730 25 173 9.7 22.5 0.00 0.00 0.00 45 1009.4
20260505194227 26 214 17.7 24.1 0.00 0.00 0.00 46 1009.3
20260505193722 25 222 9.7 16.1 0.00 0.00 0.00 46 1009.4
20260505193220 25 175 8.0 14.5 0.00 0.00 0.00 46 1009.4
20260505192719 26 203 11.3 25.7 0.00 0.00 0.00 45 1009.6
20260505192216 26 216 12.9 16.1 0.00 0.00 0.00 47 1009.5
20260505191714 25 238 9.7 17.7 0.00 0.00 0.00 47 1009.4
20260505191212 25 238 4.8 25.7 0.00 0.00 0.00 46 1009.5
20260505190708 25 157 11.3 24.1 0.00 0.00 0.00 44 1009.5
20260505190207 26 227 11.3 17.7 0.00 0.00 0.00 46 1009.8
20260505185705 26 336 12.9 24.1 0.00 0.00 0.00 44 1009.7
20260505185201 26 210 8.0 11.3 0.00 0.00 0.00 46 1009.7
20260505184657 26 231 9.7 16.1 0.00 0.00 0.00 44 1009.9
20260505184154 26 218 9.7 24.1 0.00 0.00 0.00 47 1010.1
20260505183651 26 212 16.1 25.7 0.00 0.00 0.00 45 1010.1